Ely, NV

4:02 PM PST on February 07, 2016 (GMT -0800)
Ely

Weather History for KELY - November, 2010

Change the Weather History Date:

Monday, November 29, 2010

  Actual Average Record
Temperature  
Mean Temperature 10 °F 28 °F  
Max Temperature 24 °F 43 °F 66 °F (1910)
Min Temperature -4 °F 14 °F -7 °F (2006)
Degree Days  
Heating Degree Days 55 37  
Month to date heating degree days 961 902  
Since 1 July heating degree days 1721 1830  
Cooling Degree Days 0 0  
Month to date cooling degree days 0 0  
Year to date cooling degree days 271 218  
Moisture  
Dew Point -1 °F    
Average Humidity 66    
Maximum Humidity 87    
Minimum Humidity 45    
Precipitation  
Precipitation 0.00 in 0.01 in 0.55 in (1970)
Month to date precipitation 1.65 0.68  
Year to date precipitation 7.78 9.15  
Snow  
Snow 0.00 in 0.20 in 3.00 in (1895)
Month to date snowfall 20.3 5.9  
Since 1 July snowfall 20.3 9.3  
Since 1 September snowfall 20.3 9.3  
Snow Depth 7.00 in    
Sea Level Pressure  
Sea Level Pressure 30.49 in    
Wind  
Wind Speed 8 mph (WNW)    
Max Wind Speed 16 mph    
Max Gust Speed 20 mph    
Visibility 10 miles    
Events      
T = Trace of Precipitation, MM = Missing Value Source: NWS Daily Summary

Daily Weather History Graph

Daily Weather History Graph

Search for Another Location

Airport or City:

Trip Planner

Search our weather history database for the weather conditions in past years. The results will help you decide how hot, cold, wet, or windy it might be!

Date:

Astronomy

Nov. 29, 2010 Rise Set
Actual Time 6:38 AM PST 4:17 PM PST
Civil Twilight 6:08 AM PST 4:46 PM PST
Nautical Twilight 5:35 AM PST 5:19 PM PST
Astronomical Twilight 5:03 AM PST 5:52 PM PST
Moon No Moon Rise 12:18 PM PST (11/29)
Length of Visible Light 10h 38m
Length of Day
9h 38m
Last Quarter, 39% of the Moon is Illuminated
Nov 29
Last Quarter
Dec 5
New
Dec 13
First Quarter
Dec 21
Full
Dec 27
Last Quarter

Hourly Weather History & Observations

Time (PST) Temp. Windchill Dew Point Humidity Pressure Visibility Wind Dir Wind Speed Gust Speed Precip Events Conditions
12:53 AM 8.1 °F -3.2 °F 1.9 °F 76% 30.15 in 10.0 mi NW 6.9 mph - N/A   Scattered Clouds
1:53 AM 10.0 °F -2.9 °F 3.0 °F 73% 30.18 in 10.0 mi WNW 9.2 mph - N/A   Overcast
2:53 AM 5.0 °F -10.0 °F -0.0 °F 80% 30.24 in 10.0 mi WNW 10.4 mph - N/A   Partly Cloudy
3:53 AM 1.9 °F -12.9 °F -2.9 °F 80% 30.29 in 10.0 mi NW 9.2 mph - N/A   Clear
4:53 AM 3.9 °F -6.9 °F -0.9 °F 80% 30.31 in 10.0 mi NW 5.8 mph - N/A   Clear
5:53 AM -0.9 °F -12.7 °F -5.1 °F 83% 30.38 in 10.0 mi North 5.8 mph - N/A   Clear
6:53 AM -0.0 °F -11.6 °F -4.0 °F 83% 30.42 in 10.0 mi NW 5.8 mph - N/A   Clear
7:53 AM 1.9 °F -5.6 °F -2.9 °F 80% 30.43 in 10.0 mi SSW 3.5 mph - N/A   Clear
8:53 AM 10.0 °F - 1.9 °F 70% 30.44 in 10.0 mi Calm Calm - N/A   Clear
9:53 AM 17.1 °F 5.8 °F 5.0 °F 59% 30.45 in 10.0 mi NW 9.2 mph - N/A   Clear
10:53 AM 19.0 °F 9.0 °F 6.1 °F 57% 30.46 in 10.0 mi NNW 8.1 mph - N/A   Clear
11:53 AM 21.9 °F 14.5 °F 6.1 °F 51% 30.49 in 10.0 mi North 5.8 mph - N/A   Clear
12:53 PM 23.0 °F 17.0 °F 6.1 °F 48% 30.48 in 10.0 mi NNW 4.6 mph - N/A   Clear
1:53 PM 23.0 °F 17.0 °F 5.0 °F 46% 30.48 in 10.0 mi NNW 4.6 mph - N/A   Clear
2:53 PM 21.9 °F 15.7 °F 6.1 °F 51% 30.52 in 10.0 mi NE 4.6 mph - N/A   Clear
3:53 PM 18.0 °F 11.1 °F 3.9 °F 54% 30.58 in 10.0 mi NNW 4.6 mph - N/A   Clear
4:53 PM 12.9 °F - 1.9 °F 62% 30.60 in 10.0 mi Calm Calm - N/A   Clear
5:53 PM 1.0 °F -14.9 °F -4.0 °F 79% 30.70 in 10.0 mi SSE 10.4 mph - N/A   Clear
6:53 PM 1.0 °F -16.6 °F -4.0 °F 79% 30.71 in 10.0 mi South 12.7 mph - N/A   Clear
7:53 PM 1.0 °F -15.8 °F -6.0 °F 72% 30.71 in 10.0 mi South 11.5 mph - N/A   Clear
8:53 PM -2.0 °F -19.6 °F -8.0 °F 76% 30.71 in 10.0 mi South 11.5 mph - N/A   Clear
9:53 PM -2.9 °F -23.1 °F -9.0 °F 75% 30.69 in 10.0 mi South 15.0 mph - N/A   Clear
10:53 PM -2.0 °F -21.2 °F -9.0 °F 72% 30.67 in 10.0 mi South 13.8 mph - N/A   Clear
11:53 PM -0.9 °F -20.6 °F -8.0 °F 72% 30.65 in 10.0 mi South 15.0 mph - N/A   Clear